{"data":{"norad_id":64421,"epoch":"2026-05-24T23:31:56.687808Z","epoch_age_seconds":89975,"freshness":"FRESH","line1":"1 64421U 25129K   26144.98051722  .00000109  00000+0  16940-4 0  9990","line2":"2 64421  69.9995 242.1507 0003920 267.6090  92.4620 14.98322839 52718","mean_motion":14.98322839,"eccentricity":0.000392,"inclination_deg":69.9995,"raan_deg":242.1507,"arg_perigee_deg":267.609,"mean_anomaly_deg":92.462,"bstar":1.694e-5,"rev_number":5271,"period_min":96.107458454086,"perigee_km":569.35355154035,"apogee_km":574.80252012845,"semimajor_km":6950.2150358344,"source":"CELESTRAK","updated_at":"2026-05-25T13:38:20.440313Z"}}